OpenBCM V2.0.2 (Linux)

Packet Radio Mailbox

IZ3LSV

[San Dona' di P. JN]

 Login: GUEST





  
CX2SA  > KEPS     19.04.13 05:03l 290 Lines 7587 Bytes #999 (0) @ WW
BID : ORB13108.D
Read: GUEST
Subj: Orbital Elements  13108.MICROS
Path: IZ3LSV<IR1UAW<IK1NHL<CX2SA
Sent: 130419/0256Z @:CX2SA.SAL.URY.SA #:5358 [Salto] FBB7.00e $:ORB13108.D
From: CX2SA@CX2SA.SAL.URY.SA
To  : KEPS@AMSAT


HR AMSAT ORBITAL ELEMENTS FOR THE MICROSATS
FROM WA5QGD FORT WORTH,TX April 18, 2013
BID: ORB13108.D
TO ALL RADIO AMATEURS BT

Satellite: UO-11
Catalog number: 14781
Epoch time:      13108.71455568
Element set:     155
Inclination:      097.9081 deg
RA of node:       170.8617 deg
Eccentricity:    0.0010326
Arg of perigee:   120.7035 deg
Mean anomaly:     239.5196 deg
Mean motion:   14.80825829 rev/day
Decay rate:       4.33e-06 rev/day^2
Epoch rev:           56513
Checksum:              304

Satellite: AO-16
Catalog number: 20439
Epoch time:      13108.83796293
Element set:     725
Inclination:      098.4678 deg
RA of node:       050.2549 deg
Eccentricity:    0.0010221
Arg of perigee:   340.2725 deg
Mean anomaly:     078.6731 deg
Mean motion:   14.32159201 rev/day
Decay rate:        7.4e-07 rev/day^2
Epoch rev:           21374
Checksum:              294

Satellite: LO-19
Catalog number: 20442
Epoch time:      13106.92548039
Element set:     657
Inclination:      098.4361 deg
RA of node:       050.3706 deg
Eccentricity:    0.0011112
Arg of perigee:   335.8191 deg
Mean anomaly:     064.1639 deg
Mean motion:   14.32371064 rev/day
Decay rate:        7.8e-07 rev/day^2
Epoch rev:           21366
Checksum:              283

Satellite: AO-27
Catalog number: 22825
Epoch time:      13108.78121986
Element set:     362
Inclination:      098.6143 deg
RA of node:       053.4487 deg
Eccentricity:    0.0009655
Arg of perigee:   102.8776 deg
Mean anomaly:     313.6694 deg
Mean motion:   14.29550578 rev/day
Decay rate:        5.5e-07 rev/day^2
Epoch rev:            2014
Checksum:              318

Satellite: IO-26
Catalog number: 22826
Epoch time:      13107.87845326
Element set:     118
Inclination:      098.6082 deg
RA of node:       052.8551 deg
Eccentricity:    0.0010162
Arg of perigee:   099.3294 deg
Mean anomaly:     293.9430 deg
Mean motion:   14.29833117 rev/day
Decay rate:        7.4e-07 rev/day^2
Epoch rev:            2014
Checksum:              296

Satellite: GO-32
Catalog number: 25397
Epoch time:      13108.78914876
Element set:      49
Inclination:      098.4091 deg
RA of node:       079.1502 deg
Eccentricity:    0.0002477
Arg of perigee:   106.9264 deg
Mean anomaly:     316.1487 deg
Mean motion:   14.23333378 rev/day
Decay rate:        1.5e-07 rev/day^2
Epoch rev:           76749
Checksum:              327

Satellite: NO-44
Catalog number: 26931
Epoch time:      13107.81064316
Element set:     307
Inclination:      067.0532 deg
RA of node:       055.1477 deg
Eccentricity:    0.0006831
Arg of perigee:   286.6259 deg
Mean anomaly:     105.3265 deg
Mean motion:   14.29908958 rev/day
Decay rate:        6.8e-07 rev/day^2
Epoch rev:           60279
Checksum:              314

Satellite: SO-50
Catalog number: 27607
Epoch time:      13108.02340866
Element set:      43
Inclination:      064.5566 deg
RA of node:       087.2831 deg
Eccentricity:    0.0052641
Arg of perigee:   182.1208 deg
Mean anomaly:     215.6154 deg
Mean motion:   14.72857753 rev/day
Decay rate:       3.88e-06 rev/day^2
Epoch rev:           55485
Checksum:              306

Satellite: CO-55
Catalog number: 27844
Epoch time:      13107.60279262
Element set:     627
Inclination:      098.7017 deg
RA of node:       117.5561 deg
Eccentricity:    0.0010721
Arg of perigee:   068.6587 deg
Mean anomaly:     078.6873 deg
Mean motion:   14.21191078 rev/day
Decay rate:       2.27e-06 rev/day^2
Epoch rev:           50812
Checksum:              315

Satellite: CO-57
Catalog number: 27848
Epoch time:      13107.99573718
Element set:     572
Inclination:      098.7104 deg
RA of node:       117.4239 deg
Eccentricity:    0.0010692
Arg of perigee:   072.8489 deg
Mean anomaly:     340.7253 deg
Mean motion:   14.20919986 rev/day
Decay rate:       1.93e-06 rev/day^2
Epoch rev:           50811
Checksum:              339

Satellite: AO-51
Catalog number: 28375
Epoch time:      13108.41683258
Element set:     535
Inclination:      098.1957 deg
RA of node:       066.2953 deg
Eccentricity:    0.0083424
Arg of perigee:   196.0494 deg
Mean anomaly:     310.8364 deg
Mean motion:   14.41096106 rev/day
Decay rate:        9.7e-07 rev/day^2
Epoch rev:           46272
Checksum:              323

Satellite: CP3
Catalog number: 31129
Epoch time:      13107.95565441
Element set:     439
Inclination:      097.8953 deg
RA of node:       104.0083 deg
Eccentricity:    0.0098979
Arg of perigee:   254.4594 deg
Mean anomaly:     157.8007 deg
Mean motion:   14.53572528 rev/day
Decay rate:       4.85e-06 rev/day^2
Epoch rev:           31824
Checksum:              332

Satellite: CO-65
Catalog number: 32785
Epoch time:      13108.77348122
Element set:     608
Inclination:      097.7569 deg
RA of node:       167.9899 deg
Eccentricity:    0.0015720
Arg of perigee:   139.5655 deg
Mean anomaly:     336.3326 deg
Mean motion:   14.83730838 rev/day
Decay rate:       9.36e-06 rev/day^2
Epoch rev:           26906
Checksum:              360

Satellite: PRISM
Catalog number: 33493
Epoch time:      13108.27985984
Element set:     722
Inclination:      098.2102 deg
RA of node:       263.2746 deg
Eccentricity:    0.0018744
Arg of perigee:   030.8835 deg
Mean anomaly:     329.3428 deg
Mean motion:   14.85653240 rev/day
Decay rate:      3.952e-05 rev/day^2
Epoch rev:           22902
Checksum:              312

Satellite: SOHLA-1
Catalog number: 33496
Epoch time:      13107.85086100
Element set:      22
Inclination:      098.1273 deg
RA of node:       224.0539 deg
Eccentricity:    0.0007601
Arg of perigee:   146.9210 deg
Mean anomaly:     359.2012 deg
Mean motion:   14.70241742 rev/day
Decay rate:       3.28e-06 rev/day^2
Epoch rev:           22700
Checksum:              250

Satellite: SO-67
Catalog number: 35870
Epoch time:      13108.79970131
Element set:     980
Inclination:      097.1972 deg
RA of node:       139.6781 deg
Eccentricity:    0.0002764
Arg of perigee:   132.1879 deg
Mean anomaly:     347.8984 deg
Mean motion:   15.26511065 rev/day
Decay rate:      5.471e-05 rev/day^2
Epoch rev:           19919
Checksum:              353

Satellite: TISAT-1
Catalog number: 36799
Epoch time:      13108.75154443
Element set:     995
Inclination:      098.0350 deg
RA of node:       193.0956 deg
Eccentricity:    0.0013360
Arg of perigee:   259.9784 deg
Mean anomaly:     099.9895 deg
Mean motion:   14.83080259 rev/day
Decay rate:      2.312e-05 rev/day^2
Epoch rev:           14976
Checksum:              352

Satellite: STUDSAT
Catalog number: 36801
Epoch time:      13108.81625468
Element set:     616
Inclination:      098.0449 deg
RA of node:       195.7808 deg
Eccentricity:    0.0011282
Arg of perigee:   236.7944 deg
Mean anomaly:     235.2895 deg
Mean motion:   14.87593736 rev/day
Decay rate:      3.598e-05 rev/day^2
Epoch rev:           14990
Checksum:              348

Satellite: ALMASAT-1
Catalog number: 38078
Epoch time:      13108.80539308
Element set:     189
Inclination:      069.4838 deg
RA of node:       338.4956 deg
Eccentricity:    0.0712551
Arg of perigee:   222.8721 deg
Mean anomaly:     131.4694 deg
Mean motion:   14.21263000 rev/day
Decay rate:     1.5488e-04 rev/day^2
Epoch rev:            6079
Checksum:              318

Satellite: XATCOBEO
Catalog number: 38082
Epoch time:      13108.70761111
Element set:      87
Inclination:      069.4815 deg
RA of node:       320.0118 deg
Eccentricity:    0.0617434
Arg of perigee:   212.7138 deg
Mean anomaly:     143.4298 deg
Mean motion:   14.45986361 rev/day
Decay rate:     4.9633e-04 rev/day^2
Epoch rev:            6129
Checksum:              298



Read previous mail | Read next mail


 01.05.2026 21:35:16lGo back Go up